| time (UTC) | temp F | wind direction | speed MPH | gust MPH | rain 1hr in | rain 24hr in | rain mn in | humidity % | barometer mb |
| 20260504011043 | 74 | 161 | 7.0 | 10.0 | 0.00 | 0.00 | 0.00 | 45 | 1015.7 |
| 20260504010539 | 74 | 153 | 8.0 | 13.0 | 0.00 | 0.00 | 0.00 | 44 | 1015.6 |
| 20260504010035 | 75 | 158 | 8.0 | 11.0 | 0.00 | 0.00 | 0.00 | 45 | 1015.5 |
| 20260504005532 | 74 | 147 | 9.0 | 12.0 | 0.00 | 0.00 | 0.00 | 44 | 1015.6 |
| 20260504005030 | 75 | 149 | 7.0 | 10.0 | 0.00 | 0.00 | 0.00 | 44 | 1015.6 |
| 20260504004527 | 75 | 161 | 6.0 | 8.0 | 0.00 | 0.00 | 0.00 | 43 | 1015.6 |
| 20260504004024 | 76 | 158 | 5.0 | 7.0 | 0.00 | 0.00 | 0.00 | 42 | 1015.6 |
| 20260504003520 | 76 | 180 | 5.0 | 8.0 | 0.00 | 0.00 | 0.00 | 39 | 1015.5 |
| 20260504003017 | 77 | 164 | 5.0 | 11.0 | 0.00 | 0.00 | 0.00 | 38 | 1015.6 |
| 20260504002514 | 77 | 196 | 9.0 | 12.0 | 0.00 | 0.00 | 0.00 | 38 | 1015.7 |
| 20260504002012 | 77 | 163 | 7.0 | 13.0 | 0.00 | 0.00 | 0.00 | 39 | 1015.7 |
| 20260504001509 | 77 | 144 | 7.0 | 13.0 | 0.00 | 0.00 | 0.00 | 38 | 1015.6 |
| 20260504001005 | 78 | 195 | 9.0 | 14.0 | 0.00 | 0.00 | 0.00 | 37 | 1015.8 |
| 20260504000502 | 78 | 134 | 8.0 | 14.0 | 0.00 | 0.00 | 0.00 | 38 | 1015.8 |
| 20260503235959 | 78 | 160 | 7.0 | 13.0 | 0.00 | 0.00 | 0.00 | 38 | 1015.9 |
| 20260503235458 | 78 | 162 | 10.0 | 16.0 | 0.00 | 0.00 | 0.00 | 37 | 1015.9 |
| 20260503234954 | 79 | 144 | 9.0 | 11.0 | 0.00 | 0.00 | 0.00 | 38 | 1015.8 |
| 20260503234452 | 79 | 175 | 10.0 | 13.0 | 0.00 | 0.00 | 0.00 | 40 | 1015.9 |
| 20260503233950 | 79 | 160 | 9.0 | 13.0 | 0.00 | 0.00 | 0.00 | 38 | 1015.9 |
| 20260503233446 | 79 | 147 | 7.0 | 15.0 | 0.00 | 0.00 | 0.00 | 38 | 1016.1 |
| 20260503232942 | 79 | 152 | 11.0 | 15.0 | 0.00 | 0.00 | 0.00 | 38 | 1015.9 |
| 20260503232439 | 80 | 183 | 6.0 | 12.0 | 0.00 | 0.00 | 0.00 | 38 | 1015.8 |
| 20260503231937 | 79 | 151 | 7.0 | 12.0 | 0.00 | 0.00 | 0.00 | 38 | 1015.8 |
| 20260503231434 | 80 | 151 | 5.0 | 12.0 | 0.00 | 0.00 | 0.00 | 37 | 1016.0 |
| 20260503230931 | 80 | 259 | 6.0 | 10.0 | 0.00 | 0.00 | 0.00 | 36 | 1016.1 |
| 20260503230427 | 80 | 160 | 5.0 | 12.0 | 0.00 | 0.00 | 0.00 | 36 | 1016.0 |
| 20260503225925 | 79 | 166 | 9.0 | 16.0 | 0.00 | 0.00 | 0.00 | 36 | 1016.1 |
| 20260503225422 | 79 | 145 | 8.0 | 15.0 | 0.00 | 0.00 | 0.00 | 37 | 1016.0 |
| 20260503224917 | 80 | 157 | 9.0 | 15.0 | 0.00 | 0.00 | 0.00 | 38 | 1016.1 |
| 20260503224415 | 80 | 147 | 6.0 | 16.0 | 0.00 | 0.00 | 0.00 | 36 | 1016.1 |
| 20260503223912 | 80 | 187 | 5.0 | 13.0 | 0.00 | 0.00 | 0.00 | 38 | 1016.2 |
| 20260503223410 | 80 | 175 | 8.0 | 14.0 | 0.00 | 0.00 | 0.00 | 36 | 1016.2 |
| 20260503222910 | 80 | 188 | 14.0 | 16.0 | 0.00 | 0.00 | 0.00 | 36 | 1016.4 |
| 20260503222409 | 80 | 163 | 13.0 | 15.0 | 0.00 | 0.00 | 0.00 | 37 | 1016.3 |
| 20260503221907 | 80 | 149 | 11.0 | 17.0 | 0.00 | 0.00 | 0.00 | 38 | 1016.3 |
| 20260503221405 | 80 | 186 | 6.0 | 15.0 | 0.00 | 0.00 | 0.00 | 36 | 1016.3 |
| 20260503220901 | 81 | 188 | 7.0 | 16.0 | 0.00 | 0.00 | 0.00 | 37 | 1016.5 |
| 20260503220358 | 80 | 218 | 7.0 | 15.0 | 0.00 | 0.00 | 0.00 | 37 | 1016.5 |
| 20260503215855 | 81 | 162 | 8.0 | 11.0 | 0.00 | 0.00 | 0.00 | 38 | 1016.6 |
| 20260503215352 | 81 | 179 | 9.0 | 11.0 | 0.00 | 0.00 | 0.00 | 37 | 1016.6 |
| 20260503214849 | 81 | 170 | 9.0 | 12.0 | 0.00 | 0.00 | 0.00 | 34 | 1016.6 |
| 20260503214347 | 81 | 143 | 10.0 | 13.0 | 0.00 | 0.00 | 0.00 | 38 | 1016.5 |
| 20260503213844 | 80 | 141 | 4.0 | 14.0 | 0.00 | 0.00 | 0.00 | 39 | 1016.8 |
| 20260503213342 | 80 | 172 | 6.0 | 13.0 | 0.00 | 0.00 | 0.00 | 38 | 1016.9 |
| 20260503212838 | 81 | 163 | 9.0 | 12.0 | 0.00 | 0.00 | 0.00 | 37 | 1016.9 |
| 20260503212336 | 81 | 175 | 10.0 | 16.0 | 0.00 | 0.00 | 0.00 | 35 | 1016.9 |
| 20260503211833 | 81 | 186 | 8.0 | 15.0 | 0.00 | 0.00 | 0.00 | 36 | 1016.9 |
| 20260503211330 | 81 | 153 | 12.0 | 17.0 | 0.00 | 0.00 | 0.00 | 36 | 1016.9 |
| 20260503210825 | 80 | 149 | 7.0 | 11.0 | 0.00 | 0.00 | 0.00 | 40 | 1017.2 |
| 20260503210323 | 81 | 165 | 4.0 | 14.0 | 0.00 | 0.00 | 0.00 | 36 | 1017.3 |
| 20260503205817 | 81 | 249 | 5.0 | 11.0 | 0.00 | 0.00 | 0.00 | 36 | 1017.3 |
| 20260503205314 | 80 | 184 | 6.0 | 12.0 | 0.00 | 0.00 | 0.00 | 35 | 1017.5 |
| 20260503204811 | 80 | 145 | 8.0 | 14.0 | 0.00 | 0.00 | 0.00 | 35 | 1017.5 |
| 20260503204309 | 80 | 148 | 4.0 | 12.0 | 0.00 | 0.00 | 0.00 | 37 | 1017.7 |
| 20260503203806 | 81 | 180 | 9.0 | 14.0 | 0.00 | 0.00 | 0.00 | 35 | 1017.7 |
| 20260503203303 | 81 | 147 | 11.0 | 11.0 | 0.00 | 0.00 | 0.00 | 37 | 1017.9 |
| 20260503202800 | 81 | 214 | 3.0 | 11.0 | 0.00 | 0.00 | 0.00 | 32 | 1017.9 |
| 20260503202258 | 82 | 179 | 8.0 | 13.0 | 0.00 | 0.00 | 0.00 | 33 | 1018.0 |
| 20260503201755 | 82 | 245 | 6.0 | 12.0 | 0.00 | 0.00 | 0.00 | 34 | 1018.1 |
| 20260503201253 | 81 | 165 | 7.0 | 15.0 | 0.00 | 0.00 | 0.00 | 36 | 1018.2 |
| 20260503200750 | 82 | 143 | 11.0 | 14.0 | 0.00 | 0.00 | 0.00 | 34 | 1018.1 |
| 20260503200245 | 81 | 153 | 12.0 | 18.0 | 0.00 | 0.00 | 0.00 | 33 | 1018.2 |
| 20260503195743 | 81 | 158 | 7.0 | 15.0 | 0.00 | 0.00 | 0.00 | 35 | 1018.4 |
| 20260503195239 | 81 | 249 | 9.0 | 13.0 | 0.00 | 0.00 | 0.00 | 33 | 1018.3 |
| 20260503194737 | 80 | 213 | 6.0 | 11.0 | 0.00 | 0.00 | 0.00 | 35 | 1018.4 |
| 20260503194232 | 80 | 155 | 7.0 | 16.0 | 0.00 | 0.00 | 0.00 | 38 | 1018.7 |
| 20260503193729 | 81 | 224 | 6.0 | 11.0 | 0.00 | 0.00 | 0.00 | 36 | 1018.7 |
| 20260503193225 | 81 | 194 | 4.0 | 9.0 | 0.00 | 0.00 | 0.00 | 37 | 1018.9 |
| 20260503192721 | 81 | 171 | 10.0 | 13.0 | 0.00 | 0.00 | 0.00 | 35 | 1018.8 |
| 20260503192216 | 80 | 229 | 5.0 | 11.0 | 0.00 | 0.00 | 0.00 | 36 | 1019.0 |
| 20260503191713 | 81 | 198 | 6.0 | 9.0 | 0.00 | 0.00 | 0.00 | 37 | 1019.0 |
| 20260503191210 | 80 | 165 | 9.0 | 11.0 | 0.00 | 0.00 | 0.00 | 38 | 1019.1 |
| 20260503190707 | 80 | 193 | 7.0 | 11.0 | 0.00 | 0.00 | 0.00 | 37 | 1018.9 |
| 20260503190204 | 81 | 182 | 7.0 | 12.0 | 0.00 | 0.00 | 0.00 | 37 | 1019.0 |
| 20260503185701 | 79 | 135 | 3.0 | 14.0 | 0.00 | 0.00 | 0.00 | 40 | 1019.1 |
| 20260503185156 | 80 | 241 | 7.0 | 12.0 | 0.00 | 0.00 | 0.00 | 39 | 1019.1 |
| 20260503184651 | 80 | 236 | 6.0 | 13.0 | 0.00 | 0.00 | 0.00 | 37 | 1019.4 |
| 20260503184148 | 80 | 165 | 9.0 | 10.0 | 0.00 | 0.00 | 0.00 | 39 | 1019.3 |
| 20260503183644 | 79 | 159 | 9.0 | 11.0 | 0.00 | 0.00 | 0.00 | 40 | 1019.4 |
| 20260503183142 | 79 | 248 | 4.0 | 13.0 | 0.00 | 0.00 | 0.00 | 41 | 1019.6 |
| 20260503182640 | 80 | 267 | 8.0 | 11.0 | 0.00 | 0.00 | 0.00 | 39 | 1019.8 |
| 20260503182139 | 79 | 217 | 7.0 | 13.0 | 0.00 | 0.00 | 0.00 | 42 | 1019.8 |
| 20260503181635 | 79 | 127 | 8.0 | 10.0 | 0.00 | 0.00 | 0.00 | 42 | 1019.7 |
| 20260503181131 | 79 | 241 | 10.0 | 14.0 | 0.00 | 0.00 | 0.00 | 41 | 1020.1 |
| 20260503180628 | 79 | 242 | 8.0 | 11.0 | 0.00 | 0.00 | 0.00 | 41 | 1019.8 |
| 20260503180126 | 79 | 247 | 6.0 | 11.0 | 0.00 | 0.00 | 0.00 | 46 | 1020.1 |
| 20260503175623 | 78 | 210 | 11.0 | 13.0 | 0.00 | 0.00 | 0.00 | 42 | 1020.4 |
| 20260503175120 | 78 | 235 | 8.0 | 12.0 | 0.00 | 0.00 | 0.00 | 43 | 1020.3 |
| 20260503174616 | 78 | 181 | 9.0 | 10.0 | 0.00 | 0.00 | 0.00 | 43 | 1020.5 |
| 20260503174114 | 78 | 196 | 5.0 | 13.0 | 0.00 | 0.00 | 0.00 | 43 | 1020.5 |
| 20260503173608 | 78 | 158 | 6.0 | 13.0 | 0.00 | 0.00 | 0.00 | 46 | 1020.5 |
| 20260503173105 | 78 | 164 | 7.0 | 10.0 | 0.00 | 0.00 | 0.00 | 47 | 1020.9 |
| 20260503172602 | 78 | 187 | 5.0 | 13.0 | 0.00 | 0.00 | 0.00 | 44 | 1020.7 |
| 20260503172100 | 78 | 250 | 5.0 | 11.0 | 0.00 | 0.00 | 0.00 | 46 | 1020.8 |
| 20260503171556 | 77 | 146 | 7.0 | 11.0 | 0.00 | 0.00 | 0.00 | 44 | 1020.9 |
| 20260503171054 | 78 | 147 | 8.0 | 10.0 | 0.00 | 0.00 | 0.00 | 43 | 1020.9 |
| 20260503170549 | 78 | 168 | 6.0 | 10.0 | 0.00 | 0.00 | 0.00 | 43 | 1021.0 |
| 20260503150942 | 71 | 177 | 2.0 | 10.0 | 0.00 | 0.00 | 0.00 | 54 | 1021.5 |
| 20260503150439 | 71 | 185 | 7.0 | 9.0 | 0.00 | 0.00 | 0.00 | 54 | 1021.6 |
| 20260503131332 | 62 | 197 | 3.0 | 8.0 | 0.00 | 0.00 | 0.00 | 68 | 1021.2 |
| 20260503130829 | 61 | 152 | 6.0 | 8.0 | 0.00 | 0.00 | 0.00 | 69 | 1021.0 |
| 20260503130327 | 61 | 162 | 4.0 | 6.0 | 0.00 | 0.00 | 0.00 | 69 | 1021.1 |
| 20260503110720 | 57 | 155 | 3.0 | 4.0 | 0.00 | 0.00 | 0.00 | 74 | 1020.0 |
| 20260503110217 | 57 | 147 | 3.0 | 5.0 | 0.00 | 0.00 | 0.00 | 74 | 1020.1 |
| 20260503100138 | 57 | 137 | 2.0 | 4.0 | 0.00 | 0.00 | 0.00 | 73 | 1020.0 |
| 20260503081532 | 59 | 152 | 2.0 | 4.0 | 0.00 | 0.00 | 0.00 | 68 | 1019.6 |
| 20260503081030 | 59 | 136 | 2.0 | 3.0 | 0.00 | 0.00 | 0.00 | 68 | 1019.6 |
| 20260503080526 | 59 | 172 | 1.0 | 2.0 | 0.00 | 0.00 | 0.00 | 67 | 1019.8 |
| 20260503072459 | 59 | 159 | 2.0 | 3.0 | 0.00 | 0.00 | 0.00 | 66 | 1019.6 |
| 20260503071956 | 59 | 209 | 2.0 | 2.0 | 0.00 | 0.00 | 0.00 | 66 | 1019.9 |
| 20260503071453 | 59 | 196 | 2.0 | 2.0 | 0.00 | 0.00 | 0.00 | 66 | 1019.9 |
| 20260503070949 | 60 | 118 | 1.0 | 4.0 | 0.00 | 0.00 | 0.00 | 65 | 1020.0 |
| 20260503070446 | 60 | 180 | 2.0 | 3.0 | 0.00 | 0.00 | 0.00 | 64 | 1019.9 |
| 20260503054900 | 62 | 164 | 4.0 | 5.0 | 0.00 | 0.00 | 0.00 | 58 | 1019.8 |
| 20260503054356 | 62 | 136 | 3.0 | 6.0 | 0.00 | 0.00 | 0.00 | 58 | 1019.7 |
| 20260503053854 | 62 | 142 | 4.0 | 5.0 | 0.00 | 0.00 | 0.00 | 58 | 1019.8 |
| 20260503053352 | 62 | 132 | 3.0 | 6.0 | 0.00 | 0.00 | 0.00 | 59 | 1019.7 |
| 20260503052848 | 62 | 136 | 4.0 | 5.0 | 0.00 | 0.00 | 0.00 | 59 | 1019.8 |
| 20260503052345 | 62 | 147 | 4.0 | 6.0 | 0.00 | 0.00 | 0.00 | 59 | 1020.0 |
| 20260503051842 | 62 | 136 | 3.0 | 4.0 | 0.00 | 0.00 | 0.00 | 60 | 1019.9 |
| 20260503051338 | 62 | 132 | 3.0 | 5.0 | 0.00 | 0.00 | 0.00 | 61 | 1019.8 |
| 20260503050835 | 61 | 135 | 4.0 | 4.0 | 0.00 | 0.00 | 0.00 | 61 | 1019.7 |
| 20260503050331 | 62 | 131 | 3.0 | 5.0 | 0.00 | 0.00 | 0.00 | 60 | 1019.7 |
| 20260503045829 | 63 | 119 | 4.0 | 5.0 | 0.00 | 0.00 | 0.00 | 58 | 1019.7 |
| 20260503045327 | 63 | 131 | 4.0 | 5.0 | 0.00 | 0.00 | 0.00 | 58 | 1019.9 |
| 20260503044823 | 63 | 149 | 3.0 | 4.0 | 0.00 | 0.00 | 0.00 | 56 | 1019.8 |
| 20260503044320 | 64 | 145 | 3.0 | 5.0 | 0.00 | 0.00 | 0.00 | 55 | 1019.8 |
| 20260503043817 | 64 | 140 | 4.0 | 4.0 | 0.00 | 0.00 | 0.00 | 56 | 1019.9 |
| 20260503043314 | 64 | 154 | 5.0 | 5.0 | 0.00 | 0.00 | 0.00 | 55 | 1019.7 |
| 20260503042810 | 64 | 151 | 4.0 | 5.0 | 0.00 | 0.00 | 0.00 | 55 | 1019.7 |
| 20260503042307 | 64 | 150 | 3.0 | 5.0 | 0.00 | 0.00 | 0.00 | 55 | 1019.7 |
| 20260503041803 | 64 | 144 | 4.0 | 4.0 | 0.00 | 0.00 | 0.00 | 56 | 1019.7 |
| 20260503041300 | 64 | 137 | 4.0 | 5.0 | 0.00 | 0.00 | 0.00 | 54 | 1019.9 |
| 20260503040758 | 65 | 143 | 3.0 | 6.0 | 0.00 | 0.00 | 0.00 | 54 | 1019.8 |
| 20260503040255 | 65 | 147 | 4.0 | 5.0 | 0.00 | 0.00 | 0.00 | 52 | 1019.8 |
| 20260503035752 | 65 | 162 | 4.0 | 5.0 | 0.00 | 0.00 | 0.00 | 54 | 1019.8 |
| 20260503035249 | 65 | 147 | 4.0 | 6.0 | 0.00 | 0.00 | 0.00 | 52 | 1019.8 |
| 20260503034746 | 65 | 142 | 5.0 | 6.0 | 0.00 | 0.00 | 0.00 | 52 | 1019.7 |
| 20260503034243 | 65 | 152 | 4.0 | 6.0 | 0.00 | 0.00 | 0.00 | 53 | 1019.7 |
| 20260503033741 | 65 | 143 | 4.0 | 5.0 | 0.00 | 0.00 | 0.00 | 53 | 1019.7 |
| 20260503033238 | 65 | 157 | 4.0 | 4.0 | 0.00 | 0.00 | 0.00 | 52 | 1019.7 |
| 20260503032736 | 65 | 145 | 5.0 | 5.0 | 0.00 | 0.00 | 0.00 | 52 | 1019.6 |
| 20260503032235 | 65 | 142 | 4.0 | 5.0 | 0.00 | 0.00 | 0.00 | 53 | 1019.7 |
| 20260503031732 | 65 | 133 | 4.0 | 5.0 | 0.00 | 0.00 | 0.00 | 52 | 1019.6 |
| 20260503031230 | 65 | 142 | 3.0 | 4.0 | 0.00 | 0.00 | 0.00 | 55 | 1019.6 |
| 20260503030725 | 66 | 126 | 2.0 | 3.0 | 0.00 | 0.00 | 0.00 | 52 | 1019.5 |
| 20260503030222 | 66 | 126 | 1.0 | 3.0 | 0.00 | 0.00 | 0.00 | 51 | 1019.4 |
| 20260503025719 | 66 | 120 | 1.0 | 2.0 | 0.00 | 0.00 | 0.00 | 52 | 1019.5 |
| 20260503025217 | 66 | 119 | 2.0 | 2.0 | 0.00 | 0.00 | 0.00 | 51 | 1019.4 |
| 20260503024713 | 66 | 112 | 1.0 | 2.0 | 0.00 | 0.00 | 0.00 | 53 | 1019.5 |
| 20260503024211 | 66 | 124 | 2.0 | 2.0 | 0.00 | 0.00 | 0.00 | 53 | 1019.3 |
| 20260503023707 | 67 | 127 | 2.0 | 2.0 | 0.00 | 0.00 | 0.00 | 51 | 1019.4 |
| 20260503023203 | 67 | 104 | 3.0 | 3.0 | 0.00 | 0.00 | 0.00 | 51 | 1019.3 |
| 20260503022659 | 67 | 68 | 1.0 | 3.0 | 0.00 | 0.00 | 0.00 | 52 | 1019.2 |
| 20260503022159 | 67 | 113 | 2.0 | 2.0 | 0.00 | 0.00 | 0.00 | 52 | 1019.1 |
| 20260503021656 | 68 | 115 | 2.0 | 2.0 | 0.00 | 0.00 | 0.00 | 51 | 1019.2 |
| 20260503021153 | 68 | 106 | 2.0 | 2.0 | 0.00 | 0.00 | 0.00 | 50 | 1018.9 |
| 20260503020650 | 68 | 117 | 2.0 | 2.0 | 0.00 | 0.00 | 0.00 | 51 | 1018.9 |
| 20260503020147 | 68 | 128 | 1.0 | 2.0 | 0.00 | 0.00 | 0.00 | 49 | 1019.1 |
| 20260503015644 | 69 | 122 | 2.0 | 3.0 | 0.00 | 0.00 | 0.00 | 48 | 1019.1 |
| 20260503015141 | 69 | 118 | 2.0 | 3.0 | 0.00 | 0.00 | 0.00 | 49 | 1019.0 |
| 20260503014637 | 69 | 131 | 3.0 | 3.0 | 0.00 | 0.00 | 0.00 | 49 | 1019.0 |
| 20260503014135 | 69 | 116 | 2.0 | 3.0 | 0.00 | 0.00 | 0.00 | 49 | 1018.8 |
| 20260503013632 | 69 | 135 | 2.0 | 3.0 | 0.00 | 0.00 | 0.00 | 50 | 1019.0 |
| 20260503013130 | 69 | 126 | 3.0 | 3.0 | 0.00 | 0.00 | 0.00 | 47 | 1018.8 |
| 20260503012627 | 70 | 139 | 2.0 | 4.0 | 0.00 | 0.00 | 0.00 | 47 | 1018.9 |
| 20260503012123 | 70 | 142 | 2.0 | 3.0 | 0.00 | 0.00 | 0.00 | 46 | 1018.7 |
| 20260503011620 | 70 | 143 | 2.0 | 2.0 | 0.00 | 0.00 | 0.00 | 46 | 1018.8 |